Wind_Speed
20 21 21 21 21 21 20 19 18 18 17 18 17 17 17 17 17 18 18 19 19 19 19 19 19 18 18 18 19 19 20 20 20 21 21 20 20 21 22 22 23 24 25
22 21 21 21 21 21 20 19 19 18 18 18 18 18 18 18 18 18 18 19 18 18 18 18 18 18 19 19 19 20 20 19 19 20 20 20 20 21 22 22 22 23 24
22 21 20 19 20 20 20 20 19 19 19 19 19 19 19 19 19 18 19 18 18 19 20 19 19 19 19 19 19 19 19 19 20 20 20 20 21 21 21 22 22 23 23
21 22 21 20 19 19 19 20 20 20 20 20 19 19 19 20 20 20 19 19 20 20 20 20 20 19 19 19 20 20 20 20 20 20 21 21 22 22 22 22 23 23 23
20 20 20 19 19 19 20 19 19 20 20 20 20 19 19 19 19 19 20 20 20 20 20 20 20 20 20 20 20 20 21 21 21 22 22 22 23 23 23 23 24 24 24
20 20 20 20 20 20 20 20 20 20 20 20 19 19 19 19 19 19 19 19 19 19 20 20 20 20 20 20 20 21 21 21 22 23 23 24 24 24 25 25 24 24 24
20 20 20 21 20 20 20 19 19 20 20 20 19 20 20 20 20 19 19 18 18 19 19 20 20 20 21 21 21 22 22 22 23 24 24 25 25 25 25 25 25 25 25
20 20 20 21 21 21 21 20 20 20 20 20 20 21 21 21 21 20 19 19 19 20 20 20 20 20 21 22 22 22 22 22 23 24 24 24 24 24 25 25 26 26 26
21 20 20 20 21 21 20 20 20 21 21 21 21 21 21 21 21 21 20 20 20 20 20 20 21 21 22 22 22 22 22 22 23 24 24 24 24 25 25 26 26 26 26
21 21 21 20 20 20 20 21 20 21 21 21 21 21 21 21 21 22 21 20 20 20 21 21 21 21 22 23 23 23 23 23 24 24 25 25 25 25 26 26 26 26 25
21 21 21 20 19 19 20 20 21 21 21 21 21 21 22 22 22 22 22 21 21 22 22 22 22 22 21 22 23 23 24 24 24 25 25 25 25 25 26 26 25 25 25
19 19 19 19 19 19 19 20 20 20 20 20 21 22 22 23 23 23 23 23 22 23 23 23 23 22 22 22 23 24 24 24 24 25 25 26 25 25 25 25 25 24 25
17 17 18 18 18 19 20 20 21 21 21 21 21 22 22 23 23 23 24 24 24 24 24 24 24 24 24 24 24 25 25 25 25 25 25 25 25 25 25 24 25 25 25
18 18 18 18 18 19 20 21 21 22 22 22 22 22 23 24 24 24 25 25 24 25 25 25 25 25 24 24 24 24 25 25 25 25 25 25 25 24 24 24 24 24 25
20 19 19 19 19 19 20 21 22 22 22 22 22 22 23 24 24 25 26 26 25 25 26 26 26 26 25 24 24 24 24 25 25 25 25 25 24 24 23 24 24 24 25
20 19 19 19 20 20 20 20 21 22 22 22 23 23 24 25 25 26 27 27 27 26 26 26 26 25 25 24 24 24 25 26 26 27 26 26 26 25 25 25 25 25 24
19 19 19 20 20 20 20 21 21 21 22 22 23 24 25 25 25 25 25 26 26 26 25 26 26 26 25 25 25 26 26 26 26 26 26 26 26 26 25 25 25 25 24
19 20 21 21 21 21 21 22 22 22 22 23 23 24 24 25 25 25 25 24 24 25 25 26 26 25 25 26 26 26 26 26 26 26 26 26 26 26 26 26 26 26 25
19 20 21 22 22 22 21 22 22 22 23 23 23 23 23 23 23 23 24 24 24 24 23 24 25 25 25 25 26 27 26 27 27 26 26 27 27 27 27 27 26 26 26
19 21 21 22 22 22 21 21 22 22 23 23 23 22 22 22 22 23 23 24 24 23 23 24 24 24 25 25 25 26 26 27 27 27 27 27 27 27 27 26 26 26 26
19 20 20 21 22 22 22 22 22 22 23 22 22 22 22 22 22 22 23 24 24 24 24 24 25 25 25 25 25 25 25 26 26 27 27 27 26 26 25 25 25 25 25
20 21 21 21 22 22 22 22 22 22 22 21 21 21 22 22 22 22 23 23 24 24 24 24 24 24 24 25 26 26 26 26 26 26 26 25 25 24 24 24 24 23 24
22 22 23 23 23 23 23 22 22 22 22 22 22 22 22 22 23 23 24 24 24 24 24 24 24 24 25 25 26 26 26 26 25 25 24 24 23 24 24 24 24 24 24
23 23 23 24 24 24 23 22 22 22 22 22 22 23 23 23 23 23 23 23 22 22 22 22 22 23 24 24 25 25 25 26 25 25 24 24 24 24 24 24 24 24 24
25 25 24 25 24 24 23 23 22 22 22 22 22 22 23 23 23 23 23 22 22 22 22 22 22 23 23 24 25 25 25 25 25 24 24 24 24 24 24 24 24 24 25
26 26 25 25 24 23 23 23 22 22 22 22 22 22 23 23 23 23 22 22 22 22 22 22 22 23 24 24 24 24 24 24 24 23 23 23 23 23 24 24 24 24 24
Wind_Direction
270 272 270 268 268 267 266 264 264 266 268 269 269 271 272 272 272 268 269 270 270 270 270 271 272 270 271 272 272 273 276 276 273 271 271 272 272 273 272 272 272 272 272
268 270 272 270 266 265 264 262 263 266 268 268 269 270 270 272 274 272 272 274 271 271 271 271 271 273 273 273 273 274 277 277 276 275 274 274 275 276 276 275 274 274 273
267 268 271 267 265 263 262 261 262 265 267 269 270 269 269 270 273 274 274 274 273 273 273 272 272 273 274 274 274 275 276 275 276 276 275 276 278 280 279 277 276 276 273
267 268 268 264 261 260 261 261 262 265 269 270 269 269 271 273 275 277 277 275 275 275 274 272 271 273 274 275 274 275 275 275 275 275 276 277 278 279 279 277 276 275 274
267 265 264 260 259 261 263 263 263 265 268 269 268 269 271 274 277 277 278 276 274 273 272 271 271 273 274 274 275 275 276 276 275 275 277 277 279 278 278 277 278 276 275
267 266 262 260 261 262 262 262 263 264 265 267 267 269 272 273 275 277 278 276 273 272 271 271 273 274 276 275 275 275 276 276 276 277 276 276 278 278 277 277 279 278 276
266 267 263 262 261 259 259 262 264 265 264 266 268 269 269 272 275 276 276 275 275 275 273 272 273 274 275 276 277 276 276 277 277 279 278 278 278 278 278 279 278 278 277
264 265 265 264 263 260 258 260 263 264 265 266 268 271 271 272 274 274 272 273 275 276 276 276 275 275 274 275 276 277 277 278 280 281 281 279 278 278 279 279 278 278 278
264 265 266 265 263 262 261 262 262 263 267 267 269 269 271 272 273 273 271 271 272 274 275 276 277 276 275 275 277 279 279 279 281 284 284 282 280 278 278 279 280 280 278
265 264 264 264 264 261 261 260 262 264 267 269 270 270 270 271 273 273 273 273 272 273 274 276 277 277 277 276 277 279 280 280 280 282 284 282 281 280 279 280 282 281 281
264 264 264 263 261 260 261 261 263 266 268 269 270 269 269 270 273 273 274 273 273 274 276 276 275 276 277 277 278 279 280 279 281 282 282 282 280 280 280 281 281 281 280
264 265 266 264 261 261 260 261 262 266 270 271 270 269 269 270 271 272 273 275 276 276 279 279 276 275 276 278 280 280 280 281 283 283 282 282 282 283 282 282 282 283 283
263 265 267 266 262 261 262 263 264 266 268 270 271 270 270 271 272 273 275 276 277 277 279 279 277 275 276 279 280 281 281 282 283 283 284 284 284 284 284 284 282 280 281
261 265 268 269 270 268 267 266 267 268 269 270 271 272 272 273 273 274 276 278 279 279 279 279 279 278 278 279 279 281 281 281 282 282 284 284 284 283 283 284 284 281 282
262 265 267 270 272 273 274 273 272 272 272 272 272 274 275 274 274 275 276 277 279 279 279 279 279 279 280 278 279 280 281 281 281 281 282 284 284 283 284 285 285 284 284
267 267 268 270 272 273 273 274 274 274 273 273 273 275 275 276 276 276 275 276 277 278 278 277 277 277 278 278 278 279 279 280 280 280 281 282 282 282 283 284 284 286 287
270 270 269 272 273 273 273 275 276 275 274 275 275 277 277 277 277 276 276 276 275 276 276 275 275 276 276 278 278 279 279 279 280 281 281 280 280 280 282 282 282 285 286
270 270 271 272 272 273 274 275 277 277 276 276 277 280 280 279 278 277 276 276 277 278 277 277 278 277 276 278 279 280 279 279 281 282 281 279 279 279 281 281 282 284 285
270 271 272 274 273 273 274 276 277 277 277 277 278 281 281 280 278 276 275 276 278 279 279 280 280 280 279 279 280 281 281 281 281 281 280 279 278 279 281 282 282 283 285
271 272 274 275 275 274 275 277 277 279 278 278 278 280 281 281 279 277 276 277 279 279 280 280 281 281 281 281 282 281 281 281 280 280 280 279 279 279 281 282 282 282 283
271 273 275 277 278 277 277 277 277 278 278 276 276 278 280 281 280 278 277 276 277 278 281 282 283 283 282 283 284 285 283 283 282 282 282 280 278 279 280 281 281 281 281
270 273 275 276 277 278 278 276 276 277 276 276 278 279 281 281 280 279 278 278 278 280 281 281 282 282 282 282 284 284 284 284 284 283 283 281 279 279 279 280 281 281 282
273 273 275 276 277 278 279 278 276 275 274 275 276 279 281 281 280 279 279 279 280 280 281 283 283 282 282 282 285 285 284 284 285 285 283 281 279 279 279 279 279 281 283
273 274 276 276 277 277 276 275 275 276 275 275 275 276 278 279 279 279 280 281 281 281 281 283 284 284 284 285 286 285 285 285 284 283 281 280 278 278 278 279 280 281 283
273 272 274 275 275 275 274 273 275 277 278 278 277 277 278 279 279 279 279 279 279 281 283 283 282 284 287 288 289 288 285 284 284 283 281 279 279 277 277 280 281 281 282
272 273 274 273 272 272 272 273 274 275 277 279 279 278 279 281 281 278 278 278 279 281 283 282 282 284 287 288 289 289 287 285 283 281 282 281 280 279 279 280 280 281 283
Height
5805 5805 5804 5804 5803 5804 5804 5804 5804 5804 5804 5804 5804 5804 5803 5803 5802 5802 5801 5801 5800 5800 5799 5798 5797 5797 5796 5796 5795 5794 5793 5792 5792 5792 5791 5791 5791 5791 5791 5790 5790 5790 5790
5800 5799 5799 5798 5798 5798 5799 5799 5799 5800 5800 5799 5799 5799 5798 5798 5797 5797 5796 5795 5795 5794 5793 5793 5792 5791 5791 5790 5790 5789 5788 5787 5787 5786 5786 5785 5785 5785 5784 5784 5783 5783 5783
5794 5794 5794 5793 5793 5793 5794 5794 5794 5794 5794 5794 5794 5793 5793 5792 5792 5791 5790 5789 5789 5788 5788 5787 5787 5786 5786 5785 5784 5784 5783 5782 5781 5781 5780 5779 5779 5778 5778 5778 5777 5776 5776
5788 5788 5788 5788 5788 5788 5788 5789 5789 5789 5789 5789 5788 5788 5787 5786 5786 5785 5784 5783 5783 5782 5782 5781 5781 5781 5780 5779 5779 5778 5777 5776 5776 5775 5774 5773 5773 5772 5772 5771 5770 5770 5769
5783 5783 5782 5783 5783 5783 5783 5783 5783 5783 5783 5783 5783 5782 5781 5781 5780 5779 5778 5777 5776 5776 5775 5775 5775 5775 5774 5774 5773 5772 5772 5771 5770 5769 5768 5767 5767 5766 5765 5764 5763 5763 5762
5777 5777 5777 5777 5777 5777 5777 5778 5778 5778 5778 5777 5777 5777 5776 5775 5774 5773 5773 5771 5771 5770 5769 5769 5768 5768 5768 5767 5767 5767 5766 5765 5764 5763 5762 5761 5760 5759 5758 5757 5756 5756 5755
5771 5771 5771 5771 5771 5771 5771 5772 5772 5772 5772 5772 5771 5771 5770 5769 5769 5768 5767 5766 5765 5764 5763 5763 5762 5762 5761 5761 5761 5760 5760 5759 5758 5757 5756 5755 5754 5752 5751 5750 5749 5748 5748
5766 5766 5765 5765 5765 5765 5766 5766 5766 5766 5766 5765 5765 5764 5764 5763 5763 5762 5761 5760 5759 5759 5758 5757 5756 5756 5755 5755 5754 5754 5753 5752 5751 5750 5749 5748 5746 5745 5744 5743 5742 5741 5740
5759 5759 5759 5759 5759 5759 5760 5760 5760 5760 5759 5759 5758 5758 5758 5757 5757 5756 5755 5754 5754 5753 5752 5751 5750 5750 5749 5748 5748 5747 5746 5746 5745 5743 5742 5741 5739 5738 5737 5736 5734 5733 5732
5753 5753 5753 5754 5753 5753 5753 5754 5754 5754 5753 5752 5752 5752 5751 5751 5751 5750 5749 5748 5748 5747 5746 5745 5744 5744 5743 5742 5741 5740 5740 5739 5738 5737 5735 5734 5732 5731 5729 5728 5727 5725 5724
5747 5747 5747 5747 5747 5747 5747 5747 5748 5747 5747 5746 5746 5745 5745 5745 5745 5744 5743 5743 5742 5741 5740 5739 5738 5737 5736 5735 5734 5734 5733 5732 5731 5729 5728 5726 5725 5724 5722 5721 5719 5718 5717
5741 5741 5741 5741 5741 5741 5741 5741 5741 5741 5741 5740 5739 5739 5739 5738 5738 5738 5737 5737 5736 5735 5734 5733 5732 5731 5730 5729 5728 5727 5726 5725 5724 5722 5721 5719 5718 5716 5715 5714 5712 5711 5709
5736 5736 5736 5735 5735 5735 5735 5735 5735 5734 5734 5734 5733 5733 5733 5732 5732 5732 5731 5730 5729 5728 5727 5726 5725 5724 5723 5722 5721 5720 5719 5718 5716 5715 5714 5712 5711 5709 5708 5706 5705 5703 5702
5730 5730 5730 5730 5730 5729 5729 5728 5728 5728 5728 5728 5727 5727 5726 5726 5725 5725 5724 5723 5722 5721 5720 5718 5717 5716 5715 5714 5713 5712 5711 5710 5709 5708 5707 5705 5704 5702 5701 5699 5698 5697 5695
5724 5724 5724 5724 5724 5723 5723 5722 5722 5722 5721 5721 5721 5720 5719 5719 5718 5717 5716 5715 5714 5713 5712 5711 5710 5709 5708 5707 5706 5705 5704 5702 5702 5701 5699 5698 5696 5695 5694 5692 5691 5690 5688
5718 5718 5717 5717 5717 5717 5717 5716 5715 5715 5715 5714 5714 5713 5712 5711 5710 5709 5708 5707 5706 5705 5704 5703 5702 5701 5700 5699 5698 5697 5696 5695 5694 5693 5692 5691 5689 5688 5687 5685 5683 5682 5680
5712 5711 5711 5711 5711 5710 5710 5709 5708 5708 5708 5707 5706 5705 5704 5703 5702 5701 5700 5699 5698 5697 5695 5695 5694 5693 5692 5691 5690 5689 5688 5687 5686 5685 5684 5683 5681 5680 5679 5677 5676 5674 5673
5705 5705 5705 5705 5704 5704 5703 5702 5701 5701 5701 5700 5699 5698 5696 5695 5694 5693 5692 5691 5690 5689 5688 5687 5686 5685 5684 5683 5682 5681 5680 5679 5678 5677 5675 5674 5673 5672 5671 5669 5668 5666 5665
5698 5698 5698 5698 5697 5696 5695 5695 5694 5694 5693 5692 5692 5690 5689 5687 5686 5685 5684 5683 5682 5682 5681 5680 5679 5678 5677 5675 5674 5673 5672 5671 5669 5668 5667 5666 5665 5664 5663 5661 5660 5658 5657
5692 5692 5691 5691 5690 5689 5688 5688 5687 5687 5686 5685 5684 5683 5681 5680 5679 5678 5677 5676 5676 5675 5674 5673 5671 5670 5669 5668 5666 5665 5663 5662 5660 5659 5658 5657 5656 5655 5654 5653 5651 5650 5649
5685 5685 5684 5684 5683 5682 5681 5681 5680 5679 5679 5678 5677 5676 5675 5673 5672 5671 5670 5669 5669 5668 5667 5666 5664 5663 5661 5660 5658 5657 5655 5654 5652 5651 5650 5649 5647 5647 5645 5644 5643 5642 5640
5678 5678 5677 5677 5676 5675 5675 5674 5673 5672 5671 5671 5670 5669 5668 5666 5665 5664 5663 5662 5661 5660 5659 5658 5656 5655 5653 5652 5650 5649 5647 5645 5644 5643 5641 5640 5639 5638 5637 5636 5635 5634 5632
5671 5670 5670 5669 5669 5668 5668 5667 5666 5665 5664 5663 5663 5662 5660 5659 5658 5657 5656 5655 5654 5653 5652 5650 5649 5647 5646 5644 5642 5641 5639 5637 5636 5634 5633 5632 5631 5630 5629 5628 5627 5626 5625
5663 5663 5662 5662 5661 5661 5660 5660 5659 5658 5657 5656 5655 5654 5653 5652 5651 5650 5649 5648 5647 5645 5644 5643 5641 5640 5638 5636 5634 5633 5631 5630 5628 5627 5625 5624 5623 5622 5621 5620 5619 5618 5616
5655 5655 5654 5654 5653 5653 5652 5652 5651 5650 5650 5649 5648 5647 5646 5645 5644 5643 5642 5641 5640 5638 5637 5636 5635 5633 5631 5629 5627 5625 5623 5622 5620 5619 5617 5616 5615 5614 5613 5612 5610 5609 5608
5646 5646 5646 5645 5645 5645 5644 5644 5643 5643 5642 5641 5640 5640 5639 5637 5636 5635 5634 5633 5632 5631 5630 5629 5627 5625 5623 5621 5619 5617 5616 5614 5612 5611 5609 5608 5607 5606 5605 5603 5602 5601 5599